CAPE
676 473 84 81 136 194 372 574 707 792 885 941 975 980 1063 1093 1274 1549 1554 1834 1931 2140 2172 2295 2312 2356 2262 2040 2050 2082 1902 1966 1889 1947 2083 2285 2057 2360 2603 2314 2300 2810 2438 2300 2366 2747 3005 3106 3106 3163 3260 3402 3238 3366 3591 3591 3671 3361 3698 4162 3911 3759 3759
654 722 249 100 149 328 490 663 826 913 903 891 931 1007 1034 1113 1381 1492 1622 1888 1960 2052 2097 2208 2434 2440 2358 2260 2050 2188 2078 2025 1973 2122 1988 2514 2771 2767 2388 2508 2534 3017 3231 2650 2772 3041 3156 2941 2948 2979 3175 3238 3184 3539 3395 3376 3424 3513 3245 3925 3666 3793 3708
664 870 548 139 146 348 609 715 793 800 847 845 892 938 1014 1260 1524 1566 1719 1836 1979 1964 1939 2034 2455 2384 2314 2397 2259 2279 2054 2005 2103 2044 1983 1899 2320 2033 2257 2401 2793 2516 2432 2692 3275 2991 2886 2620 3088 3314 3205 2904 2957 3321 3739 3397 3513 3349 3546 4015 3670 3378 3883
765 977 944 315 271 472 641 770 853 823 795 788 914 947 1073 1434 1580 1691 1867 1850 1938 1974 1953 1915 2166 2099 2216 2348 2228 2274 2180 2210 2120 1849 1755 1706 1941 2154 2572 2798 2673 2332 2768 2732 2628 2722 2568 2663 2823 3309 3513 3294 3297 3143 3115 3134 2895 3203 3422 3999 3591 3507 3831
518 519 953 507 180 377 674 814 948 978 863 750 969 1132 1282 1433 1502 1640 1830 1794 1845 1842 1742 1757 1865 1977 2110 2124 1921 1930 2022 2074 2216 2105 2056 1953 2221 2388 2454 2175 2236 2255 2316 2413 2819 3168 3286 3188 2666 2970 3188 3551 3178 3129 3333 3320 2991 3425 3513 3753 3517 3471 3419
674 696 1019 742 266 456 618 757 940 1002 941 858 955 1212 1259 1228 1441 1425 1567 1768 1865 1749 1797 1902 1826 2076 2235 2040 1826 1780 2054 2302 2430 2575 2370 2424 2439 2213 2229 2205 2209 2264 2236 2515 2504 2614 2935 2862 2610 2670 2649 2536 2506 2329 2438 2646 2598 2632 3033 3595 3395 3152 3213
542 697 988 893 343 281 498 775 933 977 1033 956 996 1223 1195 1184 1379 1394 1428 1500 1648 1767 1701 1894 1882 2121 2347 2060 2008 2082 2198 2078 2434 2274 2328 2311 2223 2181 2201 2284 2428 2202 2161 2531 2536 2525 2566 2710 2655 2786 2684 2441 2578 2394 2593 3192 3007 2867 3390 3752 3938 3752 3618
563 632 753 1039 654 357 248 527 747 1089 1201 1072 1042 1234 1296 1294 1386 1517 1513 1479 1463 1516 1666 1760 1769 2010 2212 2229 2180 2022 1991 1786 2118 2240 2382 2260 2251 2358 2238 2362 2481 2572 2612 2504 2555 2582 2396 2563 2420 2621 2714 2627 2615 2750 2597 3063 3604 3010 2958 3394 3667 3523 2876
504 496 448 911 930 473 401 528 697 925 1218 1248 1270 1323 1388 1365 1525 1654 1788 1740 1762 1805 1856 1745 1745 1894 2317 2413 2367 2289 1998 1922 2217 2271 2348 2229 2225 2193 2080 2292 2406 2553 2569 2246 2258 2667 2478 2516 2440 2866 3030 2708 2674 3012 2890 3312 3048 2999 3241 3412 3612 3404 2658
543 575 676 956 1049 694 484 555 907 1094 1181 1325 1417 1496 1446 1614 1860 1772 1997 2092 2134 2186 2208 1984 1889 2182 2546 2631 2394 2208 2177 2374 2302 2146 2196 2158 2224 2186 2142 2114 2313 2583 2434 2229 2126 2278 2695 2701 2596 2862 3225 2974 2940 3117 3148 3130 3094 2978 3152 3494 3462 3254 3340
1131 1045 1049 1054 996 660 537 448 534 903 1192 1423 1388 1406 1353 1703 1845 1848 1892 2024 2000 2199 2412 2404 2249 2424 2546 2745 2695 2465 2276 2344 2320 2252 2260 2199 2152 2232 2191 2182 2170 2388 2350 2160 2024 2104 2232 2684 2796 2900 3182 2686 2762 2989 3095 3024 3078 3263 2974 2956 2949 3208 2855
1305 1351 1419 1377 1190 917 780 749 664 844 1056 1196 1322 1371 1175 970 1467 2009 2005 2158 1956 2211 2612 2634 2617 2673 2660 2576 2461 2792 2614 2512 2417 2336 2372 2314 2269 2266 2186 2096 2097 2175 2266 2138 2104 2236 2094 2186 2411 2500 2952 2898 2820 2865 3005 3124 3228 3290 3211 2750 2719 2901 2819
1188 1031 909 1066 1138 1038 1044 1126 1056 1273 1387 1413 1337 1382 1544 1792 1844 1823 1748 2086 1949 1985 2544 2767 2847 2855 2828 2607 2440 2635 2607 2564 2790 2821 2607 2542 2430 2324 2247 2103 2004 1986 2014 2081 2097 2095 1915 1866 2242 2487 2576 2894 2856 2685 2869 3112 2967 3224 3340 3051 2837 2870 2900
1462 1371 1251 1075 1264 1259 1158 1120 1221 1404 1377 1368 1180 1059 934 1449 1530 1677 1722 1696 1650 1882 2009 2017 2992 2979 2767 2653 2648 2621 2609 2620 2727 2706 2823 2746 2783 2734 2504 2298 2139 2162 2112 2210 2223 2106 1834 1662 1810 2249 2359 2592 2732 2792 2907 3198 3092 3299 3357 3071 2917 2905 2947
1626 1548 1437 1281 1135 981 1014 1089 1102 970 1167 1198 1105 1031 986 1116 1474 1685 1589 1453 1282 1211 1448 2171 1938 2093 2746 2788 2950 3057 3125 3042 2842 2534 2584 2779 2790 2526 2487 2618 2635 2590 2604 2589 2474 2175 2063 2001 1844 2018 2266 2368 2670 2778 2798 2702 2841 2836 2973 3091 3158 3005 2670
1546 1493 1455 1363 1214 1068 1125 1056 908 788 1026 1160 1164 1324 1043 971 933 1177 1511 1581 1322 1072 1382 1594 1688 1625 1169 2334 2918 3176 2972 2904 2816 2682 2588 2307 2415 2645 2684 2546 2460 2364 2463 2516 2523 2496 2441 2406 2405 2315 2327 2472 2720 2828 2757 2577 2568 2769 2531 2648 2869 2590 2004
1390 1354 1318 1274 1316 1244 1222 1106 994 929 941 955 1136 1184 1106 997 929 1040 1361 1736 1601 1358 1498 1180 1214 1328 1369 1163 1336 2439 2696 3053 2898 2524 2412 2420 2688 2979 2716 2435 2251 2221 2321 2399 2462 2513 2636 2530 2462 2346 2283 2280 2451 2682 2596 2190 2164 2458 2045 1738 1736 2549 2212
1170 1228 1278 1212 1258 1146 1088 1098 1119 1103 1019 942 1050 985 976 1028 1102 1116 1064 1222 1315 1327 1700 1510 1336 1358 1090 1131 1436 1917 2239 2294 2211 2254 2287 2287 2438 2588 2740 2450 2140 2200 2280 2179 2224 2529 2201 2205 2305 2440 2294 2257 2252 2306 2320 2205 1985 1727 1462 1134 1122 1870 2360
847 1001 1003 1011 914 974 876 852 837 871 895 920 933 876 959 1105 1148 1089 981 1104 1402 1633 1261 1452 1446 1122 970 1048 1628 1748 1599 1589 1632 1804 1945 2009 2309 2229 2274 2229 2214 2231 2185 2089 2364 2579 2498 2498 2224 2306 2431 2128 2251 2119 2129 2118 1884 1548 1284 1235 1402 1547 1808
803 781 801 768 745 747 756 725 711 730 734 723 807 710 748 893 1037 1153 1228 1342 1394 1217 1052 914 824 824 822 960 1051 1230 1155 1188 1202 1445 1605 1696 1775 2012 2103 2114 2156 2223 2122 1986 2157 2128 2107 2015 2052 2021 2249 2046 2162 2286 2050 2192 1613 1410 1236 1222 1274 1369 1529
815 886 874 731 676 724 613 733 595 615 618 588 629 676 650 827 858 918 1032 798 706 681 791 826 879 883 804 893 1042 1119 999 895 1262 1546 1580 1486 1652 1859 2035 2037 2099 1742 1732 1913 2022 1916 2072 1961 1885 1944 1904 1788 1780 1985 1949 1402 1124 1018 1051 1127 1224 1278 1359
746 750 686 601 573 517 494 478 471 492 521 496 518 574 691 738 779 735 788 824 897 633 592 570 612 701 824 910 966 965 872 834 1080 986 1289 1324 1382 1583 1663 1632 1620 1547 1548 2016 2198 2145 1983 1836 1842 1839 1707 1667 1598 1686 683 668 743 808 897 963 1040 1134 1211
799 756 673 532 450 434 431 453 495 460 486 527 478 488 444 369 440 665 618 608 574 551 585 547 439 438 700 888 947 1054 1004 841 766 932 908 1058 1173 1251 1253 1282 1278 1196 1046 1270 1427 1482 1844 1888 1717 1667 1714 1608 1606 1283 525 452 520 554 615 704 816 932 1066
644 464 425 389 342 298 323 363 417 470 450 430 437 376 399 426 412 360 400 366 382 435 460 585 520 482 394 602 892 885 693 693 840 801 766 924 900 911 884 762 808 625 542 1056 1160 1338 1690 1604 1178 1060 1054 1045 995 838 654 483 402 357 423 476 509 540 923
404 413 324 220 214 193 178 232 228 224 361 446 497 372 360 348 312 274 336 340 362 353 370 468 507 574 557 514 526 438 453 612 627 620 669 590 598 524 527 491 588 768 903 886 1071 980 1009 1385 1375 1489 1496 1463 1406 1340 1255 1153 1019 836 641 506 547 560 783
470 401 274 155 134 126 130 172 234 202 228 255 350 323 368 376 383 350 280 383 248 262 288 266 347 406 423 477 542 570 593 620 658 720 782 726 736 730 597 614 754 895 1021 962 950 961 914 1024 1072 1131 1128 1168 1237 1216 1210 1143 1086 989 876 711 621 625 622
265 298 199 155 150 157 159 166 201 223 223 209 237 235 215 248 336 396 178 216 269 293 252 381 364 262 280 291 382 409 408 457 506 623 590 495 492 584 563 562 705 820 877 929 778 631 549 629 589 572 538 496 534 601 732 848 916 904 844 798 800 794 795
124 75 145 150 168 185 172 168 206 215 203 170 158 144 86 100 153 175 206 289 196 93 217 21 75 34 224 14 152 256 185 395 320 353 289 282 329 405 532 588 671 693 645 623 591 632 658 690 706 721 722 717 713 606 604 628 666 777 848 923 930 900 882
102 102 132 167 162 207 189 140 117 97 103 90 120 110 0 55 62 89 73 132 13 29 30 24 47 129 180 157 124 95 55 53 105 200 125 128 215 267 256 312 444 510 514 542 470 439 527 596 661 671 682 670 676 687 675 655 608 551 524 575 654 612 654
129 80 108 163 164 130 131 151 129 95 80 92 119 146 134 107 0 0 46 35 36 28 10 22 110 73 69 105 66 24 35 44 85 63 25 53 110 129 218 218 188 188 190 184 240 308 360 391 426 435 444 483 545 505 460 453 444 398 466 503 566 625 558
104 124 130 116 106 105 99 109 122 128 109 91 56 4 66 94 0 0 0 6 54 29 24 109 15 4 30 23 6 18 39 42 7 34 75 36 55 13 52 123 138 104 123 156 185 210 223 242 251 274 310 340 368 407 409 351 312 377 483 557 513 451 417
42 46 79 74 79 66 47 0 64 65 65 79 73 56 4 0 0 0 1 8 19 40 30 19 27 42 2 1 3 3 4 0 8 5 0 0 1 4 12 14 29 22 46 45 102 178 220 222 240 269 283 307 312 306 287 254 278 394 418 450 428 387 341
31 17 30 12 49 36 2 17 48 50 0 0 0 0 0 0 0 0 2 3 1 10 34 24 8 4 0 0 0 0 1 0 9 9 2 0 0 0 0 2 6 0 0 3 6 12 11 15 88 90 103 151 121 112 73 169 196 217 217 216 224 217 184
20 10 12 21 15 14 2 0 0 0 0 0 0 0 0 0 0 0 0 0 0 3 6 3 0 0 0 0 0 0 0 0 0 0 0 0 1 0 0 2 0 0 0 0 0 0 0 0 0 0 0 0 0 0 0 0 0 152 150 90 156 165 154
8 25 67 48 68 62 25 1 0 0 0 0 0 0 0 0 0 0 0 0 22 196 103 20 6 3 0 0 0 0 0 0 0 0 0 0 0 0 0 0 0 0 0 0 0 0 0 0 0 0 0 0 0 67 80 79 84 92 92 83 80 88 94
28 26 22 45 46 43 8 1 0 0 0 0 0 0 0 0 0 0 0 0 0 32 64 37 2 0 0 0 0 0 0 0 0 0 0 0 0 0 0 0 0 0 0 0 0 0 0 0 0 0 0 0 0 0 0 23 0 0 0 0 0 0 0
94 83 68 58 10 8 3 1 8 0 0 0 0 0 0 0 0 0 0 0 0 0 6 13 1 0 0 0 0 0 0 0 0 0 0 0 0 0 0 0 0 0 0 0 0 0 0 0 0 0 0 0 0 0 0 0 0 0 0 0 0 0 0
191 151 127 111 96 94 52 58 43 46 17 0 0 0 0 0 0 0 0 0 0 0 8 6 0 0 0 0 0 0 0 0 0 0 0 0 0 0 0 0 0 0 0 0 0 0 0 0 0 0 0 0 0 0 0 0 0 0 0 0 0 0 0
Wind_Speed
23 22 nan nan 17 14 14 12 11 11 11 10 8 7 8 9 8 10 10 9 7 7 8 8 9 9 7 8 7 7 7 7 6 3 2 2 2 1 1 2 3 2 2 2 3 4 5 4 4 5 4 3 3 3 2 2 2 3 2 2 2 2 3
22 25 25 21 17 15 14 14 13 14 13 12 10 9 9 8 10 10 10 10 8 8 8 8 9 9 8 8 8 8 7 6 5 6 4 5 5 4 2 1 2 2 2 1 1 1 2 3 3 4 4 4 3 3 3 2 2 2 2 2 1 1 2
20 27 29 24 18 16 15 16 14 13 13 13 12 11 10 10 11 10 11 11 10 9 10 9 8 8 8 9 9 8 7 6 6 5 3 4 3 1 1 1 1 2 2 1 0 1 1 2 2 3 4 5 5 4 4 4 3 3 3 3 2 2 2
25 33 33 26 20 17 15 14 13 14 13 12 12 11 10 10 11 13 13 11 10 10 10 9 10 9 9 9 8 8 7 7 6 5 4 4 4 3 4 3 3 2 2 1 1 1 2 2 2 3 3 4 4 5 5 5 5 4 4 4 3 3 3
26 29 27 22 18 17 15 14 13 14 13 11 12 13 13 12 12 14 15 14 12 9 9 10 11 10 11 9 10 10 8 7 7 7 6 6 6 6 6 4 3 2 2 2 2 2 2 2 2 2 3 3 4 4 4 4 4 4 4 3 3 4 3
24 25 22 21 20 18 14 12 11 12 13 13 13 14 15 14 14 11 13 15 14 12 13 11 10 11 11 11 11 11 11 10 10 9 8 8 8 7 6 5 5 4 3 2 4 3 2 2 2 2 2 2 3 4 4 5 5 4 3 3 3 4 4
24 26 26 26 23 20 18 16 14 14 15 15 15 16 17 15 13 12 13 13 14 13 12 11 11 12 13 14 13 13 12 11 12 10 10 8 9 8 8 7 7 6 5 6 5 5 4 4 3 2 3 3 4 4 4 5 6 5 5 4 3 3 3
22 27 28 28 26 23 23 21 19 20 21 20 18 17 16 15 15 13 12 13 14 14 13 13 13 14 16 16 15 13 13 12 13 12 12 11 11 10 10 9 9 9 9 8 7 7 5 5 5 4 3 3 3 4 4 4 4 5 5 5 4 3 3
11 18 23 27 30 30 26 23 23 21 20 19 17 15 14 14 13 12 12 13 15 15 15 15 16 17 19 18 17 14 14 14 15 15 13 12 13 12 11 12 11 12 11 10 10 9 8 7 6 7 6 5 5 5 5 4 4 4 4 4 4 4 4
11 10 14 19 25 34 38 36 31 28 22 20 19 17 15 15 14 13 13 13 14 15 17 18 19 20 20 18 17 15 15 16 16 15 15 15 16 15 14 14 14 14 13 12 12 11 11 10 9 9 9 7 7 6 5 5 4 4 4 3 3 3 4
16 12 13 13 16 27 40 41 34 32 30 28 26 24 21 22 19 15 12 12 12 14 17 19 19 19 19 19 19 17 16 17 18 17 17 17 19 17 16 16 16 17 15 15 13 13 13 13 12 11 11 10 8 7 7 6 6 5 5 5 4 3 3
21 18 17 17 16 20 30 36 37 35 33 33 32 30 28 25 22 21 18 15 14 14 16 17 18 18 19 19 19 20 19 19 20 19 18 19 19 19 18 18 17 17 17 16 15 14 14 14 14 14 13 11 9 8 8 8 8 8 6 5 5 4 3
22 20 18 17 16 15 18 23 26 28 28 27 27 26 27 27 25 25 26 26 24 21 19 18 18 19 20 19 19 20 19 19 20 22 22 21 21 20 20 19 19 19 19 19 17 17 17 17 16 17 15 14 13 11 11 10 10 10 8 7 6 5 3
21 19 16 13 14 14 16 18 19 20 21 23 24 24 24 26 27 27 27 28 28 27 24 22 20 19 20 20 20 20 19 20 22 21 23 24 23 22 21 21 20 21 21 22 21 20 19 19 19 19 18 17 16 15 15 14 13 11 10 8 7 6 5
20 16 13 11 11 11 12 13 15 18 21 24 24 23 23 26 28 28 28 27 26 26 24 27 24 20 19 20 21 20 21 22 24 23 24 25 24 21 21 22 23 24 24 24 23 23 22 21 21 21 20 20 19 18 17 17 16 15 12 11 8 8 9
20 15 12 11 10 10 10 14 19 20 22 23 23 24 24 24 27 29 30 29 27 26 28 29 26 25 23 22 19 21 20 22 25 25 25 26 25 24 25 24 25 25 25 25 25 25 25 24 23 22 22 22 21 20 19 18 19 18 14 12 13 15 12
23 21 17 14 11 11 11 11 14 16 17 19 20 23 25 26 28 32 34 33 31 28 30 30 30 31 31 26 24 22 22 25 25 26 27 28 29 30 28 26 27 27 27 27 27 27 28 26 24 24 24 23 22 21 20 20 20 24 22 16 14 17 16
25 25 23 20 17 16 15 14 13 12 13 15 17 18 20 22 24 25 27 32 34 34 35 33 32 31 31 32 31 28 29 26 26 25 26 27 27 28 30 30 30 29 28 27 28 30 29 27 27 26 25 25 23 22 21 20 20 20 16 15 15 16 16
25 27 27 24 21 20 20 19 18 17 15 14 14 14 15 16 18 19 21 24 27 34 35 35 33 31 34 38 38 39 36 36 33 28 27 27 28 29 29 29 28 29 29 28 29 31 31 30 29 29 28 26 25 23 23 21 25 21 21 21 19 18 16
28 27 28 28 26 24 23 22 22 20 18 17 16 15 13 13 14 16 19 21 23 25 30 34 36 36 38 39 38 38 35 30 34 36 31 29 30 30 29 28 28 29 29 30 31 31 32 31 30 30 29 27 26 25 24 26 36 32 30 29 29 27 22
31 30 31 32 31 29 29 28 27 25 21 19 17 15 15 13 14 14 16 18 22 23 25 27 31 36 40 40 41 42 38 37 39 40 38 36 37 35 32 29 31 31 31 30 31 32 33 32 32 32 30 28 27 26 27 33 33 33 30 30 29 29 25
36 37 36 34 34 32 31 31 31 31 30 29 28 24 19 15 14 13 14 18 21 24 25 27 29 33 34 39 45 47 45 44 47 48 48 45 42 38 34 31 31 31 31 31 34 36 36 35 34 34 33 32 29 29 31 32 32 31 31 30 29 27 26
40 40 39 37 36 34 30 29 30 29 29 30 32 32 29 24 19 16 17 18 21 24 25 28 30 32 32 34 38 41 43 46 49 51 49 46 43 41 40 38 36 34 31 31 33 34 35 36 36 36 35 33 31 30 31 31 32 31 30 29 27 25 26
41 42 42 40 37 34 32 31 31 32 32 33 36 37 34 32 30 21 22 23 26 29 30 31 31 31 32 33 33 39 44 46 48 50 48 46 44 42 40 38 36 32 29 33 35 32 32 36 39 38 35 33 33 31 31 33 34 32 31 30 28 24 25
42 43 42 39 36 33 34 34 34 33 34 33 34 34 36 38 37 35 31 32 36 35 31 28 28 26 26 28 29 32 39 43 45 45 45 45 44 41 39 38 38 35 33 37 37 34 32 36 40 40 39 38 36 38 36 34 35 36 33 32 31 28 26
41 42 40 37 35 33 32 32 32 33 31 31 29 31 36 40 42 43 37 33 32 32 26 23 24 24 23 24 25 25 30 36 41 43 44 47 47 45 43 42 40 38 37 37 37 36 35 36 39 40 41 40 39 37 37 37 37 37 36 37 37 35 30
39 39 38 36 32 30 30 29 29 30 28 26 26 30 34 39 42 44 37 30 30 35 31 24 23 24 27 29 28 28 28 28 31 35 39 42 44 43 43 44 45 44 43 42 40 37 35 37 39 41 42 42 41 40 39 38 40 42 42 44 44 43 38
39 nan 38 36 34 33 32 31 30 29 28 27 27 27 nan 35 39 42 43 44 42 nan 34 nan nan nan 30 nan 29 29 29 28 27 29 33 37 41 43 44 46 47 47 47 47 48 48 44 41 41 42 42 41 42 43 41 42 44 39 42 45 48 49 47
41 39 37 36 36 37 37 37 37 nan 34 nan 31 28 nan nan nan nan nan 45 nan nan nan nan nan 29 29 27 27 nan nan nan 28 26 27 31 34 38 41 42 44 47 49 50 50 49 47 45 44 44 42 41 42 41 39 36 35 36 35 40 44 46 45
40 nan 38 38 39 39 41 41 40 nan nan nan 33 29 26 26 nan nan nan nan nan nan nan nan 31 nan nan 28 nan nan nan nan nan nan nan nan 25 27 31 33 33 36 40 45 50 52 52 50 48 46 46 45 42 38 35 33 30 30 31 32 36 40 41
40 40 40 40 41 40 nan 40 41 40 38 nan nan nan nan nan nan nan nan nan nan nan nan 32 nan nan nan nan nan nan nan nan nan nan nan nan nan nan nan 27 25 25 26 30 36 42 45 45 45 45 44 41 39 36 34 30 27 25 26 27 29 33 35
nan nan nan nan nan nan nan nan nan nan nan nan nan nan nan nan nan nan nan nan nan nan nan nan nan nan nan nan nan nan nan nan nan nan nan nan nan nan nan nan nan nan nan nan 21 23 26 29 31 33 35 34 32 30 29 28 26 26 25 24 25 27 29
nan nan nan nan nan nan nan nan nan nan nan nan nan nan nan nan nan nan nan nan nan nan nan nan nan nan nan nan nan nan nan nan nan nan nan nan nan nan nan nan nan nan nan nan nan nan nan nan nan nan 26 27 26 24 nan 25 26 26 26 26 25 25 25
nan nan nan nan nan nan nan nan nan nan nan nan nan nan nan nan nan nan nan nan nan nan nan nan nan nan nan nan nan nan nan nan nan nan nan nan nan nan nan nan nan nan nan nan nan nan nan nan nan nan nan nan nan nan nan nan nan 27 27 nan 27 25 25
nan nan nan nan nan nan nan nan nan nan nan nan nan nan nan nan nan nan nan nan nan 31 31 nan nan nan nan nan nan nan nan nan nan nan nan nan nan nan nan nan nan nan nan nan nan nan nan nan nan nan nan nan nan nan nan nan nan nan nan nan nan nan nan
nan nan nan nan nan nan nan nan nan nan nan nan nan nan nan nan nan nan nan nan nan nan nan nan nan nan nan nan nan nan nan nan nan nan nan nan nan nan nan nan nan nan nan nan nan nan nan nan nan nan nan nan nan nan nan nan nan nan nan nan nan nan nan
nan nan nan nan nan nan nan nan nan nan nan nan nan nan nan nan nan nan nan nan nan nan nan nan nan nan nan nan nan nan nan nan nan nan nan nan nan nan nan nan nan nan nan nan nan nan nan nan nan nan nan nan nan nan nan nan nan nan nan nan nan nan nan
25 24 23 23 nan nan nan nan nan nan nan nan nan nan nan nan nan nan nan nan nan nan nan nan nan nan nan nan nan nan nan nan nan nan nan nan nan nan nan nan nan nan nan nan nan nan nan nan nan nan nan nan nan nan nan nan nan nan nan nan nan nan nan
Wind_Direction
237 236 nan nan 223 224 231 231 233 234 238 237 235 239 235 222 218 220 224 229 226 220 224 226 224 218 216 213 216 218 220 228 228 220 205 172 164 157 84 73 63 53 61 87 114 119 129 123 116 117 124 127 133 139 140 142 141 137 156 169 164 162 168
241 231 229 228 224 222 232 239 232 226 230 233 232 239 233 236 228 224 222 227 231 227 227 228 230 221 218 216 220 226 229 229 225 214 201 200 207 195 152 115 85 59 50 94 154 155 144 130 125 125 132 141 143 156 163 171 163 166 185 227 209 208 203
247 234 227 221 219 220 232 237 233 227 230 232 235 235 235 237 237 238 229 226 230 228 225 226 230 230 222 220 224 229 233 232 227 217 201 197 214 194 199 184 137 105 88 91 119 148 183 149 187 163 151 151 156 180 190 186 190 194 218 239 246 262 266
241 230 220 213 212 217 226 236 240 231 228 237 243 244 239 237 238 239 236 234 235 237 236 228 228 231 230 230 228 228 231 233 229 219 205 203 214 231 236 232 208 184 195 122 114 162 202 220 199 202 191 171 167 169 180 185 185 200 219 236 229 244 253
218 217 220 214 208 208 211 221 232 234 235 236 238 240 239 239 240 239 239 235 233 238 244 241 230 231 229 237 230 226 231 235 233 226 221 221 225 226 225 220 226 209 186 173 203 216 238 229 203 207 203 200 166 175 175 176 172 187 202 217 209 219 221
190 192 206 218 216 213 210 214 228 239 239 237 237 237 233 235 232 243 248 246 238 231 235 240 242 239 237 241 239 236 236 234 231 231 226 230 233 227 222 217 216 216 216 205 211 198 216 212 193 194 176 183 172 163 167 168 169 170 182 201 198 192 198
173 185 198 208 215 216 213 207 211 222 231 234 233 231 233 235 238 242 247 252 252 249 247 249 248 246 239 237 238 243 247 243 237 235 229 229 234 229 228 223 219 216 208 222 217 215 215 219 211 206 196 174 174 164 174 179 168 178 186 197 202 206 192
178 188 198 205 210 215 216 208 202 209 218 224 230 234 239 237 236 243 249 251 255 251 245 246 245 242 242 239 236 240 242 244 241 239 234 233 234 233 230 229 229 225 224 222 225 226 223 223 218 223 220 204 186 179 177 180 184 165 179 187 199 195 211
199 195 201 208 213 216 220 214 205 207 217 223 229 234 242 242 241 248 253 252 250 251 248 245 243 243 243 243 242 242 240 242 242 242 243 240 234 231 228 231 231 230 226 224 227 235 230 230 226 230 232 223 218 218 204 203 181 186 186 195 201 200 192
224 217 212 217 217 213 214 212 206 206 211 216 219 225 234 236 235 239 243 250 253 256 252 247 243 243 246 248 250 251 249 247 244 245 242 242 238 235 231 229 230 232 227 226 226 232 236 233 230 235 238 234 233 235 233 228 217 207 212 217 215 209 207
223 226 229 238 233 216 212 214 213 207 206 210 213 216 219 220 226 229 239 249 254 257 258 255 249 246 247 250 252 253 252 252 251 247 245 244 241 243 240 236 234 235 234 233 232 233 236 239 239 238 242 238 238 242 250 248 242 236 224 224 229 230 208
215 219 219 225 238 222 211 212 216 218 217 217 218 220 223 222 218 220 224 235 249 259 264 265 259 256 253 251 251 249 249 249 252 254 254 252 248 249 249 247 246 245 245 246 246 247 248 247 246 248 250 249 244 241 247 251 252 248 238 230 233 236 224
230 229 229 235 242 239 226 225 233 235 234 232 231 232 232 235 235 232 229 221 218 221 238 250 254 257 258 259 258 253 251 249 250 250 253 255 254 253 254 255 254 254 253 254 253 255 256 258 259 258 258 260 256 248 246 249 251 252 249 242 239 239 241
246 243 241 244 248 248 239 235 239 247 249 249 245 246 246 243 244 246 243 239 236 231 226 227 233 247 255 257 257 256 257 253 253 252 250 250 252 253 256 257 256 255 253 252 253 251 252 256 262 263 264 264 261 257 254 254 254 257 256 256 260 269 280
242 245 249 256 265 267 263 253 247 245 242 243 248 251 254 250 248 248 246 245 245 243 242 245 240 232 239 253 257 257 256 254 251 250 252 252 250 250 252 254 256 257 256 256 253 250 250 251 253 257 260 261 260 261 261 260 258 256 259 266 283 272 243
240 247 257 267 272 267 254 238 236 236 239 245 250 249 249 250 251 251 250 246 244 242 239 244 250 250 239 233 241 250 254 255 252 251 253 254 255 254 254 253 255 257 258 258 257 255 252 249 248 249 251 255 258 260 261 262 262 266 272 261 254 267 265
239 236 237 247 262 269 270 261 254 252 251 251 252 252 249 247 244 246 247 244 243 245 244 243 244 245 245 235 225 235 251 255 256 255 255 254 255 255 256 255 253 253 255 255 256 256 255 253 252 251 249 251 254 257 256 255 257 267 274 274 268 261 254
239 236 235 239 250 261 270 273 274 273 265 258 256 254 251 250 251 253 255 249 244 242 242 242 242 246 247 246 245 246 251 255 258 261 258 254 254 255 255 254 253 253 253 253 256 255 256 256 255 253 252 251 253 255 255 251 257 270 271 265 266 270 260
241 243 244 246 249 254 259 263 265 265 265 266 265 260 258 258 258 262 265 263 255 248 247 244 242 240 241 243 246 249 249 243 247 252 254 255 251 250 252 252 253 255 254 256 255 254 255 255 254 254 253 252 252 252 252 250 258 264 260 257 254 256 254
242 248 251 252 252 251 249 252 257 262 262 258 256 261 261 262 264 262 266 273 272 267 259 254 253 252 247 241 239 244 247 251 251 250 248 249 251 250 250 249 249 251 251 251 252 253 253 254 254 253 253 253 254 253 252 252 247 245 249 252 254 257 256
246 249 251 252 252 250 249 248 249 253 259 263 266 267 267 271 280 280 280 287 289 287 277 271 270 267 263 254 247 245 243 242 246 247 243 242 246 248 249 250 246 247 248 250 252 253 252 252 254 255 256 255 256 256 256 252 248 250 251 254 256 256 253
244 248 251 253 254 253 253 250 247 248 250 251 252 255 256 258 265 282 294 293 293 294 293 288 282 280 275 263 251 246 243 244 244 239 235 236 237 236 243 250 252 250 249 249 250 250 251 250 250 252 253 254 256 258 257 254 252 256 257 256 256 256 255
251 253 254 255 257 258 255 251 250 249 250 251 251 252 252 253 258 274 281 291 292 293 296 297 291 285 284 278 266 256 251 250 249 244 239 239 239 238 235 235 237 239 248 250 250 252 254 253 251 248 245 246 251 255 255 253 247 247 253 257 258 260 257
252 254 256 258 259 259 258 258 258 256 254 251 249 248 250 252 254 264 282 286 288 283 279 278 278 276 277 281 274 261 251 249 249 247 247 245 242 239 240 239 237 235 236 248 251 249 249 253 254 250 244 244 249 253 255 253 247 243 244 246 246 245 252
253 255 257 257 259 261 262 265 265 264 262 258 254 250 250 250 253 255 256 259 259 254 251 255 264 270 276 281 280 269 257 250 248 248 250 250 246 244 244 241 238 236 235 241 243 246 245 247 252 251 243 241 247 249 250 252 249 243 241 242 243 246 253
253 255 256 258 262 268 272 270 266 261 262 261 260 256 251 251 251 250 252 256 261 258 256 256 259 267 273 276 279 276 267 261 258 254 251 249 246 245 245 243 240 237 235 239 241 239 239 243 247 247 242 242 246 249 250 251 249 244 242 244 245 243 250
255 255 256 259 264 270 271 268 266 267 266 265 261 260 254 251 250 247 246 251 259 260 261 259 259 262 266 267 268 271 271 266 259 253 246 244 245 243 240 240 240 238 237 236 239 243 242 243 245 247 246 245 246 249 251 251 251 248 246 247 247 244 246
255 nan 258 260 263 267 269 267 265 265 265 263 259 257 nan 254 250 247 246 246 250 nan 262 nan nan nan 266 nan 267 268 267 262 255 253 252 250 248 245 239 239 241 241 240 241 242 243 243 243 243 244 245 244 244 247 250 250 249 253 251 250 247 245 243
255 257 258 261 263 265 269 269 266 nan 266 nan 259 255 nan nan nan nan nan 252 nan nan nan nan nan 266 266 264 264 nan nan nan 245 247 247 249 250 248 245 242 242 242 242 243 243 244 244 244 245 246 245 244 244 245 245 244 247 247 255 254 247 242 242
255 nan 263 265 268 270 271 269 267 nan nan nan 259 255 254 255 nan nan nan nan nan nan nan nan 259 nan nan 260 nan nan nan nan nan nan nan nan 245 243 243 241 241 242 242 242 244 245 244 244 245 244 243 241 240 240 241 243 245 247 246 248 241 235 236
253 258 263 269 271 272 nan 269 268 268 268 nan nan nan nan nan nan nan nan nan nan nan nan 258 nan nan nan nan nan nan nan nan nan nan nan nan nan nan nan 235 235 238 237 239 241 243 242 240 239 238 237 234 233 233 233 233 236 239 241 238 237 233 232
nan nan nan nan nan nan nan nan nan nan nan nan nan nan nan nan nan nan nan nan nan nan nan nan nan nan nan nan nan nan nan nan nan nan nan nan nan nan nan nan nan nan nan nan 235 232 235 239 239 235 232 231 230 231 234 237 239 240 242 241 237 236 232
nan nan nan nan nan nan nan nan nan nan nan nan nan nan nan nan nan nan nan nan nan nan nan nan nan nan nan nan nan nan nan nan nan nan nan nan nan nan nan nan nan nan nan nan nan nan nan nan nan nan 235 233 234 238 nan 244 247 245 243 245 244 244 243
nan nan nan nan nan nan nan nan nan nan nan nan nan nan nan nan nan nan nan nan nan nan nan nan nan nan nan nan nan nan nan nan nan nan nan nan nan nan nan nan nan nan nan nan nan nan nan nan nan nan nan nan nan nan nan nan nan 248 244 nan 250 252 252
nan nan nan nan nan nan nan nan nan nan nan nan nan nan nan nan nan nan nan nan nan 256 259 nan nan nan nan nan nan nan nan nan nan nan nan nan nan nan nan nan nan nan nan nan nan nan nan nan nan nan nan nan nan nan nan nan nan nan nan nan nan nan nan
nan nan nan nan nan nan nan nan nan nan nan nan nan nan nan nan nan nan nan nan nan nan nan nan nan nan nan nan nan nan nan nan nan nan nan nan nan nan nan nan nan nan nan nan nan nan nan nan nan nan nan nan nan nan nan nan nan nan nan nan nan nan nan
nan nan nan nan nan nan nan nan nan nan nan nan nan nan nan nan nan nan nan nan nan nan nan nan nan nan nan nan nan nan nan nan nan nan nan nan nan nan nan nan nan nan nan nan nan nan nan nan nan nan nan nan nan nan nan nan nan nan nan nan nan nan nan
256 257 259 257 nan nan nan nan nan nan nan nan nan nan nan nan nan nan nan nan nan nan nan nan nan nan nan nan nan nan nan nan nan nan nan nan nan nan nan nan nan nan nan nan nan nan nan nan nan nan nan nan nan nan nan nan nan nan nan nan nan nan nan